| time (UTC) | temp C | wind direction | speed KPH | gust KPH | rain 1hr cm | rain 24hr cm | rain mn cm | humidity % | barometer mb |
| 20260510164127 | 13 | 80 | 8.0 | 16.1 | 0.00 | 0.00 | 0.00 | 47 | |
| 20260510163627 | 13 | 100 | 9.7 | 20.9 | 0.00 | 0.00 | 0.00 | 46 | |
| 20260510162626 | 13 | 108 | 6.4 | 16.1 | 0.00 | 0.00 | 0.00 | 48 | |
| 20260510162126 | 13 | 145 | 9.7 | 20.9 | 0.00 | 0.00 | 0.00 | 48 | |
| 20260510161626 | 13 | 89 | 11.3 | 20.9 | 0.00 | 0.00 | 0.00 | 47 | |
| 20260510161126 | 13 | 68 | 6.4 | 20.9 | 0.00 | 0.00 | 0.00 | 47 | |
| 20260510160625 | 13 | 105 | 4.8 | 16.1 | 0.00 | 0.00 | 0.00 | 47 | |
| 20260510155625 | 13 | 156 | 11.3 | 22.5 | 0.00 | 0.00 | 0.00 | 47 | |
| 20260510155124 | 13 | 84 | 9.7 | 19.3 | 0.00 | 0.00 | 0.00 | 48 | |
| 20260510154624 | 13 | 90 | 9.7 | 19.3 | 0.00 | 0.00 | 0.00 | 48 | |
| 20260510154124 | 13 | 117 | 8.0 | 19.3 | 0.00 | 0.00 | 0.00 | 48 | |
| 20260510153623 | 13 | 129 | 6.4 | 16.1 | 0.00 | 0.00 | 0.00 | 47 | |
| 20260510153123 | 13 | 82 | 8.0 | 17.7 | 0.00 | 0.00 | 0.00 | 47 | |
| 20260510152623 | 13 | 177 | 8.0 | 17.7 | 0.00 | 0.00 | 0.00 | 46 | |
| 20260510152123 | 13 | 94 | 8.0 | 17.7 | 0.00 | 0.00 | 0.00 | 47 | |
| 20260510151622 | 14 | 93 | 8.0 | 20.9 | 0.00 | 0.00 | 0.00 | 46 | |
| 20260510151122 | 13 | 93 | 8.0 | 20.9 | 0.00 | 0.00 | 0.00 | 48 | |
| 20260510150622 | 13 | 82 | 11.3 | 20.9 | 0.00 | 0.00 | 0.00 | 48 | |
| 20260510150122 | 13 | 132 | 8.0 | 20.9 | 0.00 | 0.00 | 0.00 | 48 | |
| 20260510145621 | 13 | 134 | 8.0 | 17.7 | 0.00 | 0.00 | 0.00 | 49 | |
| 20260510145121 | 13 | 146 | 9.7 | 24.1 | 0.00 | 0.00 | 0.00 | 50 | |
| 20260510144621 | 13 | 103 | 8.0 | 16.1 | 0.00 | 0.00 | 0.00 | 49 | |
| 20260510144120 | 13 | 96 | 9.7 | 17.7 | 0.00 | 0.00 | 0.00 | 50 | |
| 20260510143620 | 13 | 91 | 8.0 | 20.9 | 0.00 | 0.00 | 0.00 | 50 | |
| 20260510143120 | 13 | 62 | 6.4 | 16.1 | 0.00 | 0.00 | 0.00 | 50 | |
| 20260510142619 | 13 | 156 | 9.7 | 22.5 | 0.00 | 0.00 | 0.00 | 51 | |
| 20260510142119 | 13 | 72 | 6.4 | 17.7 | 0.00 | 0.00 | 0.00 | 50 | |
| 20260510141619 | 13 | 110 | 6.4 | 20.9 | 0.00 | 0.00 | 0.00 | 51 | |
| 20260510141119 | 13 | 84 | 12.9 | 24.1 | 0.00 | 0.00 | 0.00 | 52 | |
| 20260510140618 | 13 | 87 | 8.0 | 19.3 | 0.00 | 0.00 | 0.00 | 54 | |
| 20260510140117 | 12 | 118 | 6.4 | 17.7 | 0.00 | 0.00 | 0.00 | 53 | |
| 20260510135617 | 12 | 159 | 6.4 | 16.1 | 0.00 | 0.00 | 0.00 | 53 | |
| 20260510135116 | 12 | 77 | 6.4 | 17.7 | 0.00 | 0.00 | 0.00 | 55 | |
| 20260510134616 | 12 | 79 | 9.7 | 17.7 | 0.00 | 0.00 | 0.00 | 55 | |
| 20260510134116 | 12 | 82 | 11.3 | 22.5 | 0.00 | 0.00 | 0.00 | 56 | |
| 20260510133615 | 11 | 79 | 12.9 | 27.4 | 0.00 | 0.00 | 0.00 | 57 | |
| 20260510133115 | 11 | 113 | 12.9 | 24.1 | 0.00 | 0.00 | 0.00 | 57 | |
| 20260510132615 | 12 | 114 | 11.3 | 24.1 | 0.00 | 0.00 | 0.00 | 57 | |
| 20260510131614 | 11 | 135 | 8.0 | 17.7 | 0.00 | 0.00 | 0.00 | 59 | |
| 20260510131114 | 11 | 90 | 12.9 | 24.1 | 0.00 | 0.00 | 0.00 | 58 | |
| 20260510130614 | 11 | 82 | 9.7 | 19.3 | 0.00 | 0.00 | 0.00 | 59 | |
| 20260510130113 | 12 | 84 | 8.0 | 19.3 | 0.00 | 0.00 | 0.00 | 61 | |
| 20260510125613 | 11 | 94 | 9.7 | 19.3 | 0.00 | 0.00 | 0.00 | 61 | |
| 20260510125113 | 11 | 66 | 9.7 | 22.5 | 0.00 | 0.00 | 0.00 | 61 | |
| 20260510124612 | 11 | 91 | 12.9 | 24.1 | 0.00 | 0.00 | 0.00 | 61 | |
| 20260510124112 | 12 | 80 | 9.7 | 24.1 | 0.00 | 0.00 | 0.00 | 61 | |
| 20260510123612 | 11 | 87 | 9.7 | 22.5 | 0.00 | 0.00 | 0.00 | 61 | |
| 20260510123111 | 11 | 105 | 8.0 | 19.3 | 0.00 | 0.00 | 0.00 | 62 | |
| 20260510122611 | 11 | 90 | 11.3 | 22.5 | 0.00 | 0.00 | 0.00 | 62 | |
| 20260510122110 | 11 | 141 | 9.7 | 22.5 | 0.00 | 0.00 | 0.00 | 63 | |
| 20260510121610 | 11 | 114 | 9.7 | 22.5 | 0.00 | 0.00 | 0.00 | 63 | |
| 20260510121110 | 11 | 117 | 9.7 | 24.1 | 0.00 | 0.00 | 0.00 | 63 | |
| 20260510120610 | 11 | 70 | 11.3 | 20.9 | 0.00 | 0.00 | 0.00 | 63 | |
| 20260510120109 | 11 | 97 | 9.7 | 17.7 | 0.00 | 0.00 | 0.00 | 63 | |
| 20260510115609 | 11 | 100 | 9.7 | 20.9 | 0.00 | 0.00 | 0.00 | 63 | |
| 20260510115109 | 11 | 79 | 8.0 | 19.3 | 0.00 | 0.00 | 0.00 | 62 | |
| 20260510114609 | 11 | 84 | 8.0 | 17.7 | 0.00 | 0.00 | 0.00 | 63 | |
| 20260510114108 | 11 | 91 | 11.3 | 24.1 | 0.00 | 0.00 | 0.00 | 63 | |
| 20260510113608 | 11 | 79 | 9.7 | 20.9 | 0.00 | 0.00 | 0.00 | 63 | |
| 20260510113108 | 11 | 114 | 12.9 | 22.5 | 0.00 | 0.00 | 0.00 | 63 | |
| 20260510112607 | 11 | 115 | 8.0 | 19.3 | 0.00 | 0.00 | 0.00 | 63 | |
| 20260510112107 | 11 | 100 | 8.0 | 20.9 | 0.00 | 0.00 | 0.00 | 63 | |
| 20260510111607 | 11 | 79 | 11.3 | 22.5 | 0.00 | 0.00 | 0.00 | 64 | |
| 20260510111107 | 11 | 117 | 12.9 | 25.7 | 0.00 | 0.00 | 0.00 | 63 | |
| 20260510110106 | 11 | 97 | 11.3 | 20.9 | 0.00 | 0.00 | 0.00 | 64 | |
| 20260510105606 | 11 | 101 | 11.3 | 24.1 | 0.00 | 0.00 | 0.00 | 65 | |
| 20260510105105 | 11 | 69 | 12.9 | 19.3 | 0.00 | 0.00 | 0.00 | 65 | |
| 20260510104604 | 11 | 101 | 11.3 | 22.5 | 0.00 | 0.00 | 0.00 | 67 | |
| 20260510104104 | 10 | 129 | 9.7 | 24.1 | 0.00 | 0.00 | 0.00 | 68 | |
| 20260510103604 | 11 | 83 | 11.3 | 22.5 | 0.00 | 0.00 | 0.00 | 68 | |
| 20260510103104 | 10 | 101 | 9.7 | 19.3 | 0.00 | 0.00 | 0.00 | 68 | |
| 20260510102603 | 11 | 77 | 11.3 | 19.3 | 0.00 | 0.00 | 0.00 | 69 | |
| 20260510102103 | 11 | 118 | 9.7 | 24.1 | 0.00 | 0.00 | 0.00 | 69 | |
| 20260510101603 | 10 | 124 | 11.3 | 20.9 | 0.00 | 0.00 | 0.00 | 69 | |
| 20260510101102 | 11 | 65 | 11.3 | 22.5 | 0.00 | 0.00 | 0.00 | 69 | |
| 20260510100602 | 11 | 94 | 11.3 | 20.9 | 0.00 | 0.00 | 0.00 | 69 | |
| 20260510095601 | 11 | 101 | 9.7 | 25.7 | 0.00 | 0.00 | 0.00 | 68 | |
| 20260510095101 | 11 | 76 | 9.7 | 22.5 | 0.00 | 0.00 | 0.00 | 67 | |
| 20260510094600 | 11 | 96 | 9.7 | 24.1 | 0.00 | 0.00 | 0.00 | 68 | |
| 20260510094100 | 11 | 104 | 9.7 | 22.5 | 0.00 | 0.00 | 0.00 | 68 | |
| 20260510093600 | 11 | 98 | 9.7 | 20.9 | 0.00 | 0.00 | 0.00 | 67 | |
| 20260510093100 | 11 | 135 | 8.0 | 24.1 | 0.00 | 0.00 | 0.00 | 67 | |
| 20260510092559 | 11 | 117 | 9.7 | 22.5 | 0.00 | 0.00 | 0.00 | 67 | |
| 20260510092059 | 11 | 121 | 8.0 | 19.3 | 0.00 | 0.00 | 0.00 | 68 | |
| 20260510091559 | 11 | 145 | 8.0 | 20.9 | 0.00 | 0.00 | 0.00 | 68 | |
| 20260510091059 | 11 | 141 | 9.7 | 20.9 | 0.00 | 0.00 | 0.00 | 68 | |
| 20260510090558 | 11 | 114 | 8.0 | 19.3 | 0.00 | 0.00 | 0.00 | 68 | |
| 20260510090058 | 11 | 79 | 9.7 | 22.5 | 0.00 | 0.00 | 0.00 | 68 | |
| 20260510085558 | 11 | 87 | 11.3 | 24.1 | 0.00 | 0.00 | 0.00 | 67 | |
| 20260510085057 | 11 | 100 | 11.3 | 22.5 | 0.00 | 0.00 | 0.00 | 68 | |
| 20260510084557 | 11 | 87 | 8.0 | 19.3 | 0.00 | 0.00 | 0.00 | 68 | |
| 20260510084057 | 11 | 113 | 8.0 | 17.7 | 0.00 | 0.00 | 0.00 | 68 | |
| 20260510083557 | 11 | 100 | 8.0 | 17.7 | 0.00 | 0.00 | 0.00 | 67 | |
| 20260510083056 | 10 | 98 | 6.4 | 16.1 | 0.00 | 0.00 | 0.00 | 67 | |
| 20260510082556 | 10 | 82 | 8.0 | 19.3 | 0.00 | 0.00 | 0.00 | 68 | |
| 20260510082056 | 11 | 86 | 11.3 | 22.5 | 0.00 | 0.00 | 0.00 | 69 | |
| 20260510081556 | 11 | 114 | 14.5 | 29.0 | 0.00 | 0.00 | 0.00 | 69 | |
| 20260510081055 | 10 | 118 | 8.0 | 19.3 | 0.00 | 0.00 | 0.00 | 69 | |
| 20260510080555 | 11 | 132 | 8.0 | 20.9 | 0.00 | 0.00 | 0.00 | 68 | |
| 20260510080055 | 11 | 143 | 6.4 | 16.1 | 0.00 | 0.00 | 0.00 | 68 | |
| 20260510075554 | 11 | 111 | 11.3 | 22.5 | 0.00 | 0.00 | 0.00 | 67 | |
| 20260510075054 | 10 | 83 | 6.4 | 20.9 | 0.00 | 0.00 | 0.00 | 69 | |
| 20260510074554 | 11 | 83 | 11.3 | 22.5 | 0.00 | 0.00 | 0.00 | 69 | |
| 20260510074053 | 11 | 56 | 11.3 | 22.5 | 0.00 | 0.00 | 0.00 | 70 | |
| 20260510073553 | 10 | 110 | 8.0 | 17.7 | 0.00 | 0.00 | 0.00 | 70 | |
| 20260510073053 | 11 | 108 | 9.7 | 24.1 | 0.00 | 0.00 | 0.00 | 70 | |
| 20260510072553 | 10 | 80 | 9.7 | 20.9 | 0.00 | 0.00 | 0.00 | 71 | |
| 20260510072052 | 10 | 104 | 8.0 | 19.3 | 0.00 | 0.00 | 0.00 | 71 | |
| 20260510071552 | 10 | 96 | 8.0 | 16.1 | 0.00 | 0.00 | 0.00 | 72 | |
| 20260510071052 | 10 | 91 | 8.0 | 17.7 | 0.00 | 0.00 | 0.00 | 71 | |
| 20260510070552 | 10 | 62 | 9.7 | 20.9 | 0.00 | 0.00 | 0.00 | 72 | |
| 20260510070051 | 10 | 89 | 9.7 | 22.5 | 0.00 | 0.00 | 0.00 | 72 | |
| 20260510065551 | 10 | 80 | 11.3 | 19.3 | 0.00 | 0.00 | 0.00 | 73 | |
| 20260510065051 | 10 | 66 | 12.9 | 20.9 | 0.00 | 0.00 | 0.00 | 73 | |
| 20260510064550 | 10 | 77 | 9.7 | 20.9 | 0.00 | 0.00 | 0.00 | 73 | |
| 20260510064050 | 10 | 100 | 8.0 | 19.3 | 0.00 | 0.00 | 0.00 | 74 | |
| 20260510063550 | 10 | 156 | 8.0 | 14.5 | 0.00 | 0.00 | 0.00 | 75 | |
| 20260510063050 | 10 | 86 | 8.0 | 20.9 | 0.00 | 0.00 | 0.00 | 76 | |
| 20260510062549 | 9 | 104 | 8.0 | 17.7 | 0.00 | 0.00 | 0.00 | 76 | |
| 20260510062049 | 9 | 97 | 8.0 | 16.1 | 0.00 | 0.00 | 0.00 | 76 | |
| 20260510061549 | 10 | 139 | 8.0 | 17.7 | 0.00 | 0.00 | 0.00 | 77 | |
| 20260510060548 | 9 | 90 | 9.7 | 17.7 | 0.00 | 0.00 | 0.00 | 77 | |
| 20260510060048 | 9 | 69 | 9.7 | 19.3 | 0.00 | 0.00 | 0.00 | 77 | |
| 20260510055548 | 9 | 111 | 11.3 | 19.3 | 0.00 | 0.00 | 0.00 | 77 | |
| 20260510055047 | 10 | 101 | 11.3 | 22.5 | 0.00 | 0.00 | 0.00 | 77 | |
| 20260510054547 | 10 | 87 | 9.7 | 20.9 | 0.00 | 0.00 | 0.00 | 77 | |
| 20260510054047 | 9 | 111 | 11.3 | 17.7 | 0.00 | 0.00 | 0.00 | 77 | |
| 20260510053546 | 9 | 72 | 9.7 | 16.1 | 0.00 | 0.00 | 0.00 | 78 | |
| 20260510053046 | 9 | 77 | 8.0 | 19.3 | 0.00 | 0.00 | 0.00 | 78 | |
| 20260510052546 | 9 | 72 | 8.0 | 17.7 | 0.00 | 0.00 | 0.00 | 78 | |
| 20260510052046 | 9 | 107 | 9.7 | 19.3 | 0.00 | 0.00 | 0.00 | 78 | |
| 20260510051545 | 9 | 83 | 11.3 | 20.9 | 0.00 | 0.00 | 0.00 | 78 | |
| 20260510051045 | 9 | 97 | 9.7 | 22.5 | 0.00 | 0.00 | 0.00 | 78 | |
| 20260510050545 | 9 | 90 | 8.0 | 16.1 | 0.00 | 0.00 | 0.00 | 78 | |
| 20260510050044 | 9 | 100 | 8.0 | 17.7 | 0.00 | 0.00 | 0.00 | 78 | |
| 20260510045544 | 9 | 94 | 8.0 | 19.3 | 0.00 | 0.00 | 0.00 | 78 | |
| 20260510045044 | 10 | 82 | 6.4 | 17.7 | 0.00 | 0.00 | 0.00 | 78 | |
| 20260510044544 | 9 | 87 | 8.0 | 17.7 | 0.00 | 0.00 | 0.00 | 78 | |
| 20260510044043 | 10 | 91 | 8.0 | 16.1 | 0.00 | 0.00 | 0.00 | 78 | |
| 20260510043543 | 9 | 108 | 6.4 | 14.5 | 0.00 | 0.00 | 0.00 | 77 | |
| 20260510043043 | 10 | 108 | 6.4 | 17.7 | 0.00 | 0.00 | 0.00 | 77 | |
| 20260510042042 | 9 | 75 | 8.0 | 16.1 | 0.00 | 0.00 | 0.00 | 78 | |
| 20260510041542 | 9 | 52 | 6.4 | 14.5 | 0.00 | 0.00 | 0.00 | 78 | |
| 20260510041042 | 9 | 114 | 4.8 | 16.1 | 0.00 | 0.00 | 0.00 | 78 | |
| 20260510040541 | 9 | 76 | 6.4 | 16.1 | 0.00 | 0.00 | 0.00 | 78 | |
| 20260510040041 | 9 | 73 | 9.7 | 16.1 | 0.00 | 0.00 | 0.00 | 78 | |
| 20260510035541 | 10 | 101 | 9.7 | 19.3 | 0.00 | 0.00 | 0.00 | 79 | |
| 20260510035041 | 9 | 153 | 4.8 | 11.3 | 0.00 | 0.00 | 0.00 | 79 | |
| 20260510034540 | 9 | 104 | 8.0 | 14.5 | 0.00 | 0.00 | 0.00 | 79 | |
| 20260510034040 | 9 | 80 | 8.0 | 17.7 | 0.00 | 0.00 | 0.00 | 79 | |
| 20260510033540 | 9 | 107 | 8.0 | 19.3 | 0.00 | 0.00 | 0.00 | 79 | |
| 20260510033039 | 9 | 115 | 6.4 | 16.1 | 0.00 | 0.00 | 0.00 | 79 | |
| 20260510032539 | 9 | 138 | 6.4 | 12.9 | 0.00 | 0.00 | 0.00 | 79 | |
| 20260510032039 | 9 | 77 | 8.0 | 16.1 | 0.00 | 0.00 | 0.00 | 79 | |
| 20260510031539 | 9 | 104 | 4.8 | 12.9 | 0.00 | 0.00 | 0.00 | 79 | |
| 20260510031038 | 9 | 77 | 6.4 | 17.7 | 0.00 | 0.00 | 0.00 | 79 | |
| 20260510030538 | 9 | 139 | 8.0 | 19.3 | 0.00 | 0.00 | 0.00 | 79 | |
| 20260510030038 | 9 | 108 | 8.0 | 17.7 | 0.00 | 0.00 | 0.00 | 79 | |
| 20260510025537 | 9 | 100 | 6.4 | 17.7 | 0.00 | 0.00 | 0.00 | 79 | |
| 20260510025037 | 8 | 89 | 6.4 | 16.1 | 0.00 | 0.00 | 0.00 | 79 | |
| 20260510024537 | 10 | 87 | 8.0 | 17.7 | 0.00 | 0.00 | 0.00 | 80 | |
| 20260510024036 | 9 | 96 | 8.0 | 17.7 | 0.00 | 0.00 | 0.00 | 80 | |
| 20260510023536 | 9 | 86 | 6.4 | 14.5 | 0.00 | 0.00 | 0.00 | 80 | |
| 20260510023036 | 9 | 91 | 6.4 | 16.1 | 0.00 | 0.00 | 0.00 | 80 | |
| 20260510022536 | 9 | 96 | 11.3 | 20.9 | 0.00 | 0.00 | 0.00 | 80 | |
| 20260510022035 | 9 | 87 | 9.7 | 20.9 | 0.00 | 0.00 | 0.00 | 80 | |
| 20260510021535 | 9 | 75 | 11.3 | 19.3 | 0.00 | 0.00 | 0.00 | 79 | |
| 20260510021035 | 9 | 100 | 8.0 | 19.3 | 0.00 | 0.00 | 0.00 | 78 | |
| 20260510020535 | 8 | 69 | 8.0 | 14.5 | 0.00 | 0.00 | 0.00 | 78 | |
| 20260510020034 | 8 | 86 | 9.7 | 19.3 | 0.00 | 0.00 | 0.00 | 78 | |
| 20260510015534 | 9 | 98 | 6.4 | 16.1 | 0.00 | 0.00 | 0.00 | 75 | |
| 20260510015034 | 9 | 118 | 6.4 | 14.5 | 0.00 | 0.00 | 0.00 | 74 | |
| 20260510014534 | 10 | 86 | 6.4 | 12.9 | 0.00 | 0.00 | 0.00 | 71 | |
| 20260510014033 | 9 | 105 | 9.7 | 16.1 | 0.00 | 0.00 | 0.00 | 71 | |
| 20260510013533 | 9 | 100 | 8.0 | 16.1 | 0.00 | 0.00 | 0.00 | 69 | |
| 20260510013033 | 10 | 104 | 6.4 | 17.7 | 0.00 | 0.00 | 0.00 | 67 | |
| 20260510012532 | 10 | 83 | 4.8 | 9.7 | 0.00 | 0.00 | 0.00 | 66 | |
| 20260510012032 | 10 | 101 | 8.0 | 14.5 | 0.00 | 0.00 | 0.00 | 65 | |
| 20260510011532 | 10 | 101 | 6.4 | 14.5 | 0.00 | 0.00 | 0.00 | 65 | |
| 20260510011032 | 10 | 82 | 8.0 | 17.7 | 0.00 | 0.00 | 0.00 | 65 | |
| 20260510010531 | 10 | 65 | 8.0 | 17.7 | 0.00 | 0.00 | 0.00 | 64 | |
| 20260510010031 | 10 | 125 | 8.0 | 17.7 | 0.00 | 0.00 | 0.00 | 63 | |
| 20260510005531 | 10 | 97 | 8.0 | 16.1 | 0.00 | 0.00 | 0.00 | 62 | |
| 20260510005030 | 10 | 70 | 6.4 | 17.7 | 0.00 | 0.00 | 0.00 | 61 | |
| 20260510004530 | 10 | 94 | 6.4 | 14.5 | 0.00 | 0.00 | 0.00 | 60 | |
| 20260510004030 | 10 | 108 | 6.4 | 12.9 | 0.00 | 0.00 | 0.00 | 59 | |
| 20260510003529 | 11 | 97 | 4.8 | 12.9 | 0.00 | 0.00 | 0.00 | 59 | |
| 20260510003029 | 11 | 135 | 4.8 | 11.3 | 0.00 | 0.00 | 0.00 | 58 | |
| 20260510002529 | 10 | 91 | 6.4 | 19.3 | 0.00 | 0.00 | 0.00 | 57 | |
| 20260510002031 | 11 | 89 | 4.8 | 16.1 | 0.00 | 0.00 | 0.00 | 57 | |
| 20260510001528 | 11 | 93 | 6.4 | 16.1 | 0.00 | 0.00 | 0.00 | 56 | |
| 20260510001028 | 11 | 97 | 6.4 | 16.1 | 0.00 | 0.00 | 0.00 | 54 | |
| 20260510000528 | 11 | 150 | 6.4 | 14.5 | 0.00 | 0.00 | 0.00 | 53 | |
| 20260510000027 | 11 | 75 | 6.4 | 17.7 | 0.00 | 0.00 | 0.00 | 52 | |
| 20260509235527 | 11 | 96 | 4.8 | 14.5 | 0.00 | 0.00 | 0.00 | 50 | |
| 20260509235027 | 11 | 86 | 3.2 | 9.7 | 0.00 | 0.00 | 0.00 | 49 | |
| 20260509234527 | 11 | 91 | 4.8 | 12.9 | 0.00 | 0.00 | 0.00 | 49 | |
| 20260509234026 | 11 | 110 | 4.8 | 14.5 | 0.00 | 0.00 | 0.00 | 48 | |
| 20260509233526 | 12 | 110 | 8.0 | 17.7 | 0.00 | 0.00 | 0.00 | 48 | |
| 20260509233026 | 12 | 111 | 8.0 | 20.9 | 0.00 | 0.00 | 0.00 | 48 | |
| 20260509232525 | 12 | 105 | 11.3 | 25.7 | 0.00 | 0.00 | 0.00 | 47 | |
| 20260509232025 | 12 | 80 | 6.4 | 17.7 | 0.00 | 0.00 | 0.00 | 47 | |
| 20260509231525 | 12 | 113 | 8.0 | 19.3 | 0.00 | 0.00 | 0.00 | 46 | |
| 20260509231025 | 12 | 96 | 8.0 | 16.1 | 0.00 | 0.00 | 0.00 | 47 | |
| 20260509230524 | 12 | 97 | 8.0 | 16.1 | 0.00 | 0.00 | 0.00 | 48 | |
| 20260509230024 | 12 | 94 | 6.4 | 16.1 | 0.00 | 0.00 | 0.00 | 48 | |
| 20260509225524 | 13 | 113 | 6.4 | 17.7 | 0.00 | 0.00 | 0.00 | 47 | |
| 20260509225024 | 13 | 118 | 6.4 | 14.5 | 0.00 | 0.00 | 0.00 | 46 | |
| 20260509224023 | 13 | 120 | 4.8 | 14.5 | 0.00 | 0.00 | 0.00 | 44 | |
| 20260509223523 | 13 | 72 | 4.8 | 12.9 | 0.00 | 0.00 | 0.00 | 43 | |
| 20260509223022 | 13 | 121 | 4.8 | 12.9 | 0.00 | 0.00 | 0.00 | 42 | |
| 20260509222522 | 13 | 115 | 4.8 | 9.7 | 0.00 | 0.00 | 0.00 | 42 | |
| 20260509222022 | 13 | 105 | 6.4 | 19.3 | 0.00 | 0.00 | 0.00 | 42 | |
| 20260509221521 | 14 | 89 | 6.4 | 17.7 | 0.00 | 0.00 | 0.00 | 42 | |
| 20260509221021 | 13 | 96 | 4.8 | 14.5 | 0.00 | 0.00 | 0.00 | 42 | |
| 20260509220521 | 13 | 149 | 4.8 | 14.5 | 0.00 | 0.00 | 0.00 | 43 | |
| 20260509220021 | 14 | 100 | 8.0 | 16.1 | 0.00 | 0.00 | 0.00 | 42 | |
| 20260509215520 | 14 | 93 | 8.0 | 16.1 | 0.00 | 0.00 | 0.00 | 44 | |
| 20260509215020 | 14 | 44 | 6.4 | 12.9 | 0.00 | 0.00 | 0.00 | 44 | |
| 20260509214520 | 14 | 91 | 4.8 | 14.5 | 0.00 | 0.00 | 0.00 | 44 | |
| 20260509214019 | 15 | 73 | 4.8 | 11.3 | 0.00 | 0.00 | 0.00 | 44 | |
| 20260509213519 | 15 | 96 | 4.8 | 12.9 | 0.00 | 0.00 | 0.00 | 43 | |
| 20260509213019 | 15 | 83 | 6.4 | 14.5 | 0.00 | 0.00 | 0.00 | 43 | |
| 20260509212519 | 15 | 113 | 4.8 | 9.7 | 0.00 | 0.00 | 0.00 | 43 | |
| 20260509212018 | 15 | 90 | 4.8 | 16.1 | 0.00 | 0.00 | 0.00 | 43 | |
| 20260509211518 | 15 | 82 | 4.8 | 12.9 | 0.00 | 0.00 | 0.00 | 43 | |
| 20260509211018 | 15 | 146 | 4.8 | 12.9 | 0.00 | 0.00 | 0.00 | 43 | |
| 20260509210517 | 15 | 124 | 6.4 | 12.9 | 0.00 | 0.00 | 0.00 | 43 | |
| 20260509210017 | 15 | 90 | 8.0 | 16.1 | 0.00 | 0.00 | 0.00 | 43 | |
| 20260509205517 | 15 | 117 | 6.4 | 16.1 | 0.00 | 0.00 | 0.00 | 43 | |
| 20260509205016 | 16 | 115 | 6.4 | 14.5 | 0.00 | 0.00 | 0.00 | 44 | |
| 20260509204516 | 16 | 117 | 6.4 | 14.5 | 0.00 | 0.00 | 0.00 | 44 | |
| 20260509204016 | 16 | 108 | 6.4 | 14.5 | 0.00 | 0.00 | 0.00 | 44 | |
| 20260509203516 | 16 | 108 | 6.4 | 12.9 | 0.00 | 0.00 | 0.00 | 43 | |
| 20260509203015 | 16 | 90 | 8.0 | 14.5 | 0.00 | 0.00 | 0.00 | 43 | |
| 20260509202515 | 16 | 94 | 6.4 | 16.1 | 0.00 | 0.00 | 0.00 | 43 | |
| 20260509202015 | 16 | 101 | 6.4 | 12.9 | 0.00 | 0.00 | 0.00 | 43 | |
| 20260509201515 | 16 | 110 | 4.8 | 11.3 | 0.00 | 0.00 | 0.00 | 42 | |
| 20260509201014 | 16 | 100 | 4.8 | 9.7 | 0.00 | 0.00 | 0.00 | 42 | |
| 20260509200514 | 16 | 90 | 4.8 | 12.9 | 0.00 | 0.00 | 0.00 | 41 | |
| 20260509200014 | 17 | 108 | 4.8 | 9.7 | 0.00 | 0.00 | 0.00 | 41 | |
| 20260509195513 | 16 | 87 | 3.2 | 8.0 | 0.00 | 0.00 | 0.00 | 41 | |
| 20260509195013 | 17 | 91 | 3.2 | 8.0 | 0.00 | 0.00 | 0.00 | 40 | |
| 20260509194013 | 17 | 90 | 3.2 | 9.7 | 0.00 | 0.00 | 0.00 | 39 | |
| 20260509193512 | 17 | 111 | 3.2 | 11.3 | 0.00 | 0.00 | 0.00 | 38 | |
| 20260509193012 | 17 | 91 | 1.6 | 9.7 | 0.00 | 0.00 | 0.00 | 38 | |
| 20260509192512 | 17 | 114 | 3.2 | 9.7 | 0.00 | 0.00 | 0.00 | 38 | |
| 20260509192011 | 17 | 90 | 3.2 | 9.7 | 0.00 | 0.00 | 0.00 | 37 | |
| 20260509191511 | 18 | 68 | 3.2 | 9.7 | 0.00 | 0.00 | 0.00 | 37 | |
| 20260509191011 | 17 | 107 | 4.8 | 9.7 | 0.00 | 0.00 | 0.00 | 37 | |
| 20260509190511 | 18 | 98 | 4.8 | 11.3 | 0.00 | 0.00 | 0.00 | 36 | |
| 20260509190010 | 18 | 101 | 3.2 | 8.0 | 0.00 | 0.00 | 0.00 | 36 | |
| 20260509185510 | 18 | 105 | 4.8 | 11.3 | 0.00 | 0.00 | 0.00 | 36 | |
| 20260509185010 | 18 | 98 | 3.2 | 9.7 | 0.00 | 0.00 | 0.00 | 36 | |
| 20260509184510 | 18 | 117 | 4.8 | 12.9 | 0.00 | 0.00 | 0.00 | 35 | |
| 20260509184009 | 18 | 94 | 4.8 | 12.9 | 0.00 | 0.00 | 0.00 | 35 | |
| 20260509183509 | 18 | 91 | 4.8 | 12.9 | 0.00 | 0.00 | 0.00 | 35 | |
| 20260509183009 | 18 | 93 | 6.4 | 14.5 | 0.00 | 0.00 | 0.00 | 35 | |
| 20260509182508 | 19 | 97 | 4.8 | 14.5 | 0.00 | 0.00 | 0.00 | 34 | |
| 20260509182008 | 19 | 97 | 6.4 | 14.5 | 0.00 | 0.00 | 0.00 | 34 | |
| 20260509181508 | 18 | 105 | 6.4 | 14.5 | 0.00 | 0.00 | 0.00 | 34 | |
| 20260509181007 | 19 | 72 | 6.4 | 14.5 | 0.00 | 0.00 | 0.00 | 33 | |
| 20260509180507 | 19 | 53 | 6.4 | 16.1 | 0.00 | 0.00 | 0.00 | 33 | |
| 20260509180007 | 19 | 96 | 6.4 | 14.5 | 0.00 | 0.00 | 0.00 | 32 | |
| 20260509175507 | 19 | 84 | 6.4 | 16.1 | 0.00 | 0.00 | 0.00 | 33 | |
| 20260509175006 | 19 | 120 | 4.8 | 14.5 | 0.00 | 0.00 | 0.00 | 33 | |
| 20260509174506 | 19 | 114 | 4.8 | 9.7 | 0.00 | 0.00 | 0.00 | 33 | |
| 20260509174006 | 19 | 72 | 6.4 | 12.9 | 0.00 | 0.00 | 0.00 | 33 | |
| 20260509173505 | 19 | 93 | 8.0 | 16.1 | 0.00 | 0.00 | 0.00 | 33 | |
| 20260509173005 | 19 | 46 | 6.4 | 16.1 | 0.00 | 0.00 | 0.00 | 32 | |
| 20260509172505 | 20 | 101 | 8.0 | 17.7 | 0.00 | 0.00 | 0.00 | 32 | |
| 20260509172005 | 20 | 76 | 8.0 | 16.1 | 0.00 | 0.00 | 0.00 | 33 | |
| 20260509171504 | 20 | 90 | 6.4 | 19.3 | 0.00 | 0.00 | 0.00 | 33 | |
| 20260509171004 | 20 | 90 | 4.8 | 16.1 | 0.00 | 0.00 | 0.00 | 32 | |
| 20260509170004 | 20 | 90 | 6.4 | 17.7 | 0.00 | 0.00 | 0.00 | 33 | |
| 20260509165503 | 20 | 87 | 6.4 | 12.9 | 0.00 | 0.00 | 0.00 | 33 | |
| 20260509165003 | 20 | 134 | 8.0 | 16.1 | 0.00 | 0.00 | 0.00 | 33 |